Location: Newark
(42.8481°N, 0.4872°E)
Time: 08:27:10
(UTC+00:00)

Vanguard 2 - Pass Details

Date: 27 October 2020
Orbit: 554 x 2937 km, 32.9° (Epoch: 26 November)

Event Time Altitude Azimuth Distance (km) Brightness Sun altitude
Rises 21:56:46 0° 258° (WSW) 5,956 12.3 -52.7°
Reaches altitude 10° 22:00:23 10° 255° (WSW) 5,185 11.9 -53.1°
Enters shadow 22:07:57 36° 242° (WSW) 3,826 10.9 -54.1°
Maximum altitude 22:16:16 60° 182° (S) 3,214 - -55.1°
Drops below altitude 10° 22:33:07 10° 108° (ESE) 5,456 - -56.8°
Sets 22:37:02 0° 105° (ESE) 6,271 - -57.2°
